Bode, Japan

8:29 AM JST on February 25, 2017 (GMT +0900)
Kansai International

Weather History for RJBB - June, 2014

Change the Weather History Date:

Wednesday, June 4, 2014

  Actual Average Record
Temperature  
Mean Temperature 72 °F -  
Max Temperature 77 °F 79 °F 84 °F (2002)
Min Temperature 68 °F 67 °F 62 °F (2007)
Cooling Degree Days 8    
Growing Degree Days 22 (Base 50)    
Moisture  
Dew Point 63 °F    
Average Humidity 77    
Maximum Humidity 88    
Minimum Humidity 50    
Precipitation  
Precipitation 0.00 in - - ()
Sea Level Pressure  
Sea Level Pressure 29.76 in    
Wind  
Wind Speed 5 mph ()    
Max Wind Speed 17 mph    
Max Gust Speed -    
Visibility 6.1 miles    
Events Rain    
Averages and records for this station are not official NWS values.
T = Trace of Precipitation, MM = Missing Value Source: Averaged Metar Reports

Daily Weather History Graph

Daily Weather History Graph

Search for Another Location

Airport or City:

Trip Planner

Search our weather history database for the weather conditions in past years. The results will help you decide how hot, cold, wet, or windy it might be!

Date:

Astronomy

Jun. 04, 2014 Rise Set
Actual Time 4:47 AM JST 7:07 PM JST
Civil Twilight 4:18 AM JST 7:36 PM JST
Nautical Twilight 3:42 AM JST 8:12 PM JST
Astronomical Twilight 3:03 AM JST 8:51 PM JST
Moon 10:21 AM JST (6/4) 11:29 PM JST (6/4)
Length of Visible Light 15h 18m
Length of Day
14h 20m
Waxing Crescent, 34% of the Moon is Illuminated
Jun 4
Waxing Crescent
Jun 6
First Quarter
Jun 13
Full
Jun 20
Last Quarter
Jun 27
New

Hourly Weather History & Observations

Time (JST) Temp. Dew Point Humidity Pressure Visibility Wind Dir Wind Speed Gust Speed Precip Events Conditions
12:00 AM 68.0 °F 64.4 °F 88% 29.83 in 6.2 mi ENE 3.5 mph - N/A   Mostly Cloudy
12:30 AM 69.8 °F 64.4 °F 83% 29.83 in 6.2 mi ESE 4.6 mph - N/A   Mostly Cloudy
1:00 AM 69.8 °F 64.4 °F 83% 29.80 in 6.2 mi East 4.6 mph - N/A   Mostly Cloudy
1:30 AM 68.0 °F 64.4 °F 88% 29.80 in 6.2 mi ENE 4.6 mph - N/A   Mostly Cloudy
2:00 AM 69.8 °F 62.6 °F 78% 29.80 in 6.2 mi ENE 4.6 mph - N/A   Mostly Cloudy
2:30 AM 69.8 °F 62.6 °F 78% 29.80 in 6.2 mi East 3.5 mph - N/A Rain Light Rain
3:00 AM 69.8 °F 64.4 °F 83% 29.80 in 6.2 mi ENE 3.5 mph - N/A Rain Light Rain
3:30 AM 68.0 °F 62.6 °F 83% 29.80 in 6.2 mi Variable 1.2 mph - N/A Rain Light Rain
4:00 AM 69.8 °F 62.6 °F 78% 29.80 in 6.2 mi Calm Calm - N/A   Mostly Cloudy
4:30 AM 68.0 °F 62.6 °F 83% 29.80 in 6.2 mi NE 5.8 mph - N/A   Mostly Cloudy
5:00 AM 69.8 °F 62.6 °F 78% 29.80 in 6.2 mi East 2.3 mph - N/A   Mostly Cloudy
5:30 AM 69.8 °F 64.4 °F 83% 29.80 in 6.2 mi NE 5.8 mph - N/A   Mostly Cloudy
6:00 AM 68.0 °F 64.4 °F 88% 29.80 in 6.2 mi Variable 2.3 mph - N/A   Mostly Cloudy
6:30 AM 68.0 °F 64.4 °F 88% 29.80 in 6.2 mi SE 2.3 mph - N/A   Scattered Clouds
7:00 AM 69.8 °F 64.4 °F 83% 29.80 in 6.2 mi ESE 2.3 mph - N/A   Scattered Clouds
7:30 AM 69.8 °F 62.6 °F 78% 29.80 in 6.2 mi Variable 1.2 mph - N/A   Scattered Clouds
8:00 AM 71.6 °F 62.6 °F 73% 29.80 in 6.2 mi East 3.5 mph - N/A   Mostly Cloudy
8:30 AM 71.6 °F 60.8 °F 69% 29.80 in 6.2 mi Variable 2.3 mph - N/A   Mostly Cloudy
9:00 AM 73.4 °F 62.6 °F 69% 29.80 in 6.2 mi SSW 3.5 mph - N/A   Mostly Cloudy
9:30 AM 73.4 °F 62.6 °F 69% 29.80 in 6.2 mi Variable 1.2 mph - N/A   Mostly Cloudy
10:00 AM 73.4 °F 62.6 °F 69% 29.77 in 6.2 mi WSW 4.6 mph - N/A   Mostly Cloudy
10:30 AM 75.2 °F 64.4 °F 69% 29.77 in 6.2 mi WSW 5.8 mph - N/A   Mostly Cloudy
11:00 AM 77.0 °F 60.8 °F 57% 29.77 in 6.2 mi Variable 2.3 mph - N/A   Mostly Cloudy
11:30 AM 77.0 °F 59.0 °F 54% 29.77 in 6.2 mi Variable 4.6 mph - N/A   Mostly Cloudy
12:00 PM 77.0 °F 57.2 °F 50% 29.77 in 6.2 mi West 5.8 mph - N/A Rain Light Rain
12:30 PM 73.4 °F 64.4 °F 73% 29.77 in 6.2 mi WSW 8.1 mph - N/A Rain Light Rain
1:00 PM 73.4 °F 62.6 °F 69% 29.74 in 6.2 mi West 8.1 mph - N/A Rain Light Rain
1:30 PM 75.2 °F 60.8 °F 61% 29.74 in 6.2 mi West 6.9 mph - N/A Rain Light Rain
2:00 PM 73.4 °F 60.8 °F 65% 29.74 in 6.2 mi West 8.1 mph - N/A Rain Light Rain
2:30 PM 73.4 °F 60.8 °F 65% 29.71 in 6.2 mi WNW 5.8 mph - N/A Rain Light Rain
3:00 PM 73.4 °F 62.6 °F 69% 29.71 in 6.2 mi West 3.5 mph - N/A Rain Light Rain
3:30 PM 71.6 °F 62.6 °F 73% 29.74 in 6.2 mi NW 3.5 mph - N/A Rain Light Rain
4:00 PM 71.6 °F 64.4 °F 78% 29.74 in 6.2 mi SW 3.5 mph - N/A Rain Light Rain
4:30 PM 71.6 °F 62.6 °F 73% 29.74 in 6.2 mi Variable 2.3 mph - N/A Rain Light Rain
5:00 PM 71.6 °F 64.4 °F 78% 29.71 in 6.2 mi NE 9.2 mph - N/A Rain Light Rain
5:30 PM 71.6 °F 62.6 °F 73% 29.71 in 5.6 mi ENE 9.2 mph - N/A Rain Light Rain
6:00 PM 69.8 °F 64.4 °F 83% 29.71 in 5.6 mi ENE 4.6 mph - N/A Rain Light Rain
6:30 PM 69.8 °F 64.4 °F 83% 29.71 in 5.6 mi ENE 5.8 mph - N/A Rain Light Rain
7:00 PM 69.8 °F 62.6 °F 78% 29.71 in 5.6 mi ENE 11.5 mph - N/A Rain Light Rain
7:30 PM 69.8 °F 62.6 °F 78% 29.71 in 6.2 mi ENE 12.7 mph - N/A Rain Light Rain
8:00 PM 69.8 °F 62.6 °F 78% 29.71 in 6.2 mi ENE 13.8 mph - N/A Rain Light Rain
8:30 PM 68.0 °F 62.6 °F 83% 29.71 in 6.2 mi ENE 16.1 mph - N/A Rain Light Rain
9:00 PM 68.0 °F 62.6 °F 83% 29.71 in 6.2 mi ENE 15.0 mph - N/A Rain Light Rain
9:04 PM 68.0 °F 62.6 °F 83% 29.71 in 5.6 mi ENE 13.8 mph - N/A Rain Rain
9:12 PM 68.0 °F 62.6 °F 83% 29.71 in 5.6 mi ENE 13.8 mph - N/A Rain Light Rain
9:30 PM 68.0 °F 62.6 °F 83% 29.71 in 6.2 mi NE 13.8 mph - N/A Rain Light Rain
10:00 PM 68.0 °F 62.6 °F 83% 29.68 in 6.2 mi NE 17.3 mph - N/A Rain Light Rain
10:30 PM 68.0 °F 62.6 °F 83% 29.68 in 5.6 mi ENE 13.8 mph - N/A Rain Light Rain
11:00 PM 68.0 °F 62.6 °F 83% 29.68 in 5.6 mi NE 11.5 mph - N/A Rain Light Rain
11:30 PM 68.0 °F 62.6 °F 83% 29.68 in 6.2 mi NE 11.5 mph - N/A Rain Light Rain